GFSMA_850_thetae_132.txt.gz
Theta_e
347 347 345 346 346 346 346 348 347 347 345 342 343 343 339 339 338 338 339 340 342 343 344 344 345 347 347 347 347 349 348 344 341 339 337 338 340 342 342 339 334 330 332
347 346 345 346 347 348 348 348 349 347 343 341 343 342 340 340 339 340 342 341 342 342 344 345 347 348 349 347 349 349 349 345 340 334 333 334 333 332 331 329 330 331 334
340 345 346 346 347 342 342 344 347 345 342 340 343 343 342 341 339 338 342 342 343 343 345 345 345 345 346 349 349 349 350 344 339 338 334 335 339 340 340 337 334 330 330
340 345 345 346 345 347 349 348 345 344 343 340 342 341 343 343 344 339 343 342 343 345 345 344 344 344 345 348 348 349 348 344 337 339 341 342 343 342 334 335 332 332 333
341 347 346 346 346 349 349 347 345 344 344 341 340 342 343 343 343 342 345 345 345 346 348 347 345 345 345 347 348 348 346 344 338 343 345 343 342 340 344 345 346 346 343
342 346 346 344 349 350 350 349 347 346 344 342 339 341 343 344 344 345 345 346 347 346 349 344 345 352 345 346 348 347 342 340 342 346 343 343 343 344 345 345 345 346 346
340 338 346 343 347 350 347 344 346 346 347 346 343 342 343 345 344 346 347 347 348 348 349 349 352 347 354 346 348 341 334 340 347 347 345 341 342 343 344 345 347 348 346
341 342 343 343 343 350 345 347 349 348 348 348 346 343 341 343 343 344 347 348 349 348 348 349 351 347 351 353 344 337 341 345 346 345 344 344 343 344 343 347 347 348 346
345 339 339 342 341 346 350 347 347 348 348 350 345 349 343 342 345 347 348 348 347 348 349 349 349 350 344 351 349 348 343 345 345 344 342 343 344 345 345 346 348 348 346
344 340 338 337 337 347 346 346 348 348 348 349 349 348 343 346 345 345 348 348 347 347 347 347 347 349 346 350 350 349 345 345 345 345 344 344 345 342 341 342 344 350 344
339 346 340 339 337 342 343 341 339 340 351 349 350 350 347 349 347 346 344 346 347 348 347 347 348 349 351 349 347 345 342 345 346 347 345 346 344 338 345 342 347 347 346
347 342 342 341 340 340 339 344 339 341 347 348 350 349 349 349 348 347 347 348 348 345 347 349 351 350 349 347 348 347 347 346 347 347 346 344 338 341 347 346 349 347 348
346 349 340 340 347 341 340 343 341 343 345 351 345 351 350 351 350 349 348 348 348 347 350 349 349 349 348 347 350 348 348 347 346 345 343 340 339 346 348 349 348 348 347
347 349 349 350 348 341 341 341 347 347 348 348 346 348 351 350 350 350 349 348 348 347 348 345 347 347 349 351 348 350 346 347 345 341 339 342 344 347 347 347 348 347 347
349 351 351 350 350 350 342 347 348 349 351 349 351 345 349 351 350 350 350 350 349 347 344 350 344 350 349 349 347 352 344 343 340 343 344 346 348 347 348 348 348 348 348
345 351 349 350 350 350 349 342 349 351 351 348 349 350 350 349 350 349 347 347 346 345 341 338 344 348 351 345 348 350 345 343 342 344 346 347 348 348 348 348 347 347 347
349 346 345 348 349 350 350 348 349 350 351 351 351 351 351 351 346 346 346 345 346 345 344 343 348 346 347 349 347 350 348 344 344 344 344 344 344 345 344 344 345 345 345
343 345 345 345 344 350 350 350 350 351 351 352 351 351 351 349 351 348 347 348 348 349 347 346 347 347 347 349 348 346 345 344 342 339 338 338 338 339 339 340 341 338 336
344 345 347 345 344 344 348 350 348 351 351 351 350 350 350 350 351 348 350 349 348 349 350 351 347 349 349 347 345 344 344 343 338 337 336 338 338 338 338 338 336 333 328
343 343 345 345 347 346 345 345 350 351 350 350 350 351 351 350 350 351 350 351 348 349 346 348 348 348 348 348 348 346 342 341 341 337 336 334 334 335 334 330 325 317 315
346 344 349 347 346 350 349 349 349 346 350 351 351 349 350 350 347 344 346 349 346 347 347 346 349 347 345 347 348 349 346 338 336 336 337 334 327 321 321 324 320 311 307
348 341 343 345 348 350 348 345 344 347 348 344 349 350 348 344 344 345 342 342 346 343 344 342 342 347 348 347 347 346 346 344 340 336 331 331 325 321 316 322 321 317 305
349 348 349 348 348 348 343 339 340 343 349 349 347 347 348 346 344 344 343 343 344 344 343 342 340 340 341 341 344 341 341 336 332 325 319 324 326 322 316 318 320 309 305
349 349 348 348 347 345 342 344 343 342 342 345 346 345 344 345 345 344 343 342 342 341 341 342 341 340 339 340 341 337 335 330 326 320 314 330 317 325 321 311 313 306 304
348 346 345 346 345 345 344 344 343 343 344 344 343 343 344 344 344 344 342 340 340 340 340 339 337 336 338 337 335 334 335 334 331 322 311 319 314 314 323 319 311 304 303
344 343 345 345 343 341 341 341 341 343 344 344 342 341 340 342 342 340 340 340 340 338 336 333 334 334 333 333 334 332 330 323 320 317 308 313 312 311 317 320 314 309 307

GFSMA_850_thetae_135.txt.gz
Theta_e
343 345 344 346 344 344 343 345 345 347 345 344 344 340 338 338 339 339 339 342 343 343 344 345 347 348 348 347 349 350 349 343 338 335 331 332 332 332 333 334 334 335 336
348 344 345 345 345 345 346 347 351 346 343 343 343 340 341 341 341 342 341 341 341 343 345 347 347 346 347 348 349 349 349 343 337 336 337 340 340 341 335 333 331 331 331
346 345 345 344 346 345 345 346 348 344 342 341 343 343 341 341 344 345 344 344 343 343 343 344 344 344 345 347 348 348 348 343 337 341 345 344 342 338 342 344 344 343 340
348 347 344 346 345 347 346 347 346 344 342 341 342 342 342 343 345 345 343 345 345 346 348 348 345 345 345 347 347 347 344 341 341 344 344 343 342 344 345 345 345 346 346
348 349 346 345 350 345 346 345 345 344 342 340 342 342 343 343 345 344 345 347 347 349 350 351 350 351 350 346 347 345 333 339 346 346 341 342 343 344 345 345 346 347 346
347 349 346 347 350 348 346 349 345 346 342 341 339 341 343 343 344 344 346 346 348 350 349 351 354 355 355 345 347 338 336 345 348 343 343 342 342 343 343 344 347 347 346
350 346 347 345 347 349 352 349 348 346 345 345 344 342 344 344 343 344 345 345 348 348 349 352 353 355 355 352 345 338 342 346 344 343 344 343 343 345 344 346 348 348 345
348 348 348 345 348 350 353 353 353 349 346 345 350 341 341 342 342 343 345 346 348 349 350 351 351 355 353 355 350 349 345 346 346 346 343 343 345 346 343 345 346 349 343
349 349 348 349 344 351 351 353 348 352 352 346 347 351 347 349 344 345 346 346 347 348 349 349 349 352 352 353 352 352 347 345 345 346 347 346 345 340 339 342 343 349 347
349 348 350 345 338 350 349 348 350 355 351 352 345 344 342 346 349 349 348 348 348 348 349 348 348 351 351 350 351 347 341 344 345 347 347 346 343 338 343 342 348 347 348
349 348 350 344 338 337 348 351 351 350 350 352 347 349 345 345 345 345 345 347 346 349 348 347 349 349 348 351 350 346 347 346 347 346 345 343 339 344 345 347 348 347 348
348 350 350 350 344 344 345 348 351 345 350 351 353 349 348 347 349 347 346 347 347 347 348 349 350 349 348 349 350 346 348 347 346 344 339 339 345 348 349 348 347 347 347
346 347 347 351 348 342 349 351 351 353 344 352 352 354 350 350 350 349 348 346 346 348 348 347 349 349 348 345 348 346 347 343 344 339 340 343 346 347 347 348 348 348 348
345 349 349 350 350 353 351 352 351 349 349 348 354 355 353 350 350 350 349 349 347 346 346 341 349 346 347 349 347 343 347 342 341 341 344 346 348 347 348 348 348 348 348
348 349 351 351 351 351 352 352 350 350 349 354 351 354 349 351 349 348 349 349 348 346 345 351 346 346 347 346 349 344 343 341 341 343 344 345 347 348 348 347 346 347 347
349 351 350 352 353 351 353 351 350 348 350 349 347 348 351 352 351 349 348 347 347 346 343 341 339 349 346 342 351 347 346 346 341 342 343 343 344 344 344 344 344 343 342
352 351 352 352 351 351 353 351 349 349 351 353 350 351 354 351 350 349 348 346 344 344 344 343 347 350 348 343 352 350 349 345 342 341 339 338 338 338 338 338 338 335 333
348 352 353 353 352 352 352 350 351 350 351 352 351 351 352 349 350 349 346 345 345 348 351 347 346 348 348 350 352 347 345 339 343 340 338 339 338 337 336 336 333 330 324
349 351 352 350 352 352 352 349 350 351 352 352 352 351 352 351 350 348 350 352 350 351 349 350 349 347 349 347 349 346 346 345 342 340 337 336 334 334 333 328 324 317 313
350 353 352 349 350 352 352 353 353 351 352 352 350 352 349 349 351 352 349 347 348 349 350 349 349 349 347 349 346 345 346 343 340 336 336 338 330 324 322 321 320 315 309
353 354 353 352 351 352 352 351 350 349 351 352 351 351 352 349 350 349 349 347 349 349 346 344 345 347 349 345 348 346 347 343 343 341 338 336 329 324 314 318 319 316 309
352 352 352 352 350 352 350 350 349 351 349 350 351 350 348 349 350 345 345 344 345 343 344 347 345 344 346 347 343 344 345 344 340 339 336 334 331 324 316 313 317 312 305
346 348 350 351 350 349 350 348 345 343 347 350 350 347 348 347 348 345 343 344 345 343 345 343 346 343 344 341 340 341 343 342 340 330 324 330 328 326 323 314 312 310 305
346 346 347 347 347 350 350 346 344 341 344 348 350 351 349 348 348 346 348 346 344 342 343 343 344 345 343 341 341 343 343 337 332 328 318 330 324 323 325 319 313 305 304
348 345 345 346 349 347 347 343 342 345 345 346 348 347 347 347 348 345 346 344 343 342 341 341 342 341 340 339 340 337 339 338 338 329 326 313 319 316 323 324 319 310 304
348 347 347 348 345 347 346 341 343 342 346 347 347 346 346 344 348 343 343 343 341 340 340 340 339 337 336 337 335 334 335 329 326 325 320 311 315 314 318 325 318 313 310

GFSMA_850_thetae_138.txt.gz
Theta_e
345 343 342 343 345 344 344 345 348 345 342 345 341 339 337 339 339 336 340 342 342 343 345 347 347 346 347 348 348 348 346 340 335 337 341 342 342 339 337 336 334 334 334
342 337 343 343 344 348 348 346 347 347 344 344 342 340 340 340 342 341 339 339 341 343 343 343 343 344 345 347 345 347 344 336 339 344 344 343 341 342 344 344 345 344 344
348 348 347 345 345 346 341 341 345 345 342 342 342 342 341 340 344 344 345 344 343 345 347 348 345 345 344 346 346 346 336 338 343 344 344 343 343 344 344 344 345 346 345
346 345 341 346 342 344 347 347 347 345 340 342 343 342 342 343 337 342 343 345 345 347 349 351 350 351 349 345 347 334 338 345 347 345 342 343 342 343 343 343 345 346 346
342 349 352 348 338 349 346 346 346 344 341 342 343 342 343 342 343 345 345 345 348 348 350 351 351 351 348 345 345 336 343 346 345 342 344 343 344 344 343 343 347 347 345
348 351 349 345 345 350 348 345 345 345 342 340 342 342 343 344 344 345 345 346 349 348 351 349 355 353 352 351 342 341 341 344 344 342 343 343 344 345 344 345 347 348 344
350 345 350 343 346 344 348 345 345 345 346 343 345 342 344 344 344 344 344 345 348 348 348 351 352 352 356 353 350 349 344 344 345 345 346 345 345 344 338 340 344 348 346
347 348 350 345 333 340 348 349 353 348 350 342 346 351 343 343 344 343 346 346 348 348 351 351 351 344 350 346 349 352 350 343 344 345 347 346 344 339 342 343 344 346 346
346 348 346 349 341 347 347 353 354 352 351 346 345 350 351 345 340 344 341 345 348 349 348 348 349 350 352 352 349 341 338 338 344 345 346 345 339 341 344 343 348 347 347
346 349 344 345 345 336 347 350 353 347 342 353 347 343 344 343 333 334 335 339 348 348 349 348 348 351 351 351 350 340 340 344 345 345 342 337 342 345 344 349 347 347 347
345 349 349 349 350 338 335 347 349 345 351 351 353 349 346 344 349 345 343 342 342 348 349 349 351 349 348 347 348 340 346 346 346 344 338 342 347 348 349 347 347 347 347
343 347 351 349 346 339 347 346 344 339 342 347 348 347 348 349 348 349 349 348 348 349 348 347 350 350 348 348 346 339 343 340 342 338 341 345 347 347 347 348 348 348 348
348 346 344 343 344 341 340 343 346 346 345 338 340 352 351 348 349 349 348 350 350 346 337 335 336 348 350 347 347 345 342 341 340 339 342 345 347 347 347 348 348 347 347
349 347 346 346 341 352 347 341 346 349 347 348 346 342 348 351 350 348 349 349 348 348 345 346 347 348 351 348 339 347 345 341 339 341 343 345 347 347 347 346 346 346 345
348 348 348 350 346 345 350 348 346 349 348 351 351 350 343 344 350 352 349 349 348 348 347 344 347 350 347 346 344 340 346 345 340 341 341 342 343 343 342 342 342 340 339
347 349 352 350 346 349 348 350 346 350 349 345 348 347 348 351 349 352 352 348 347 347 345 343 347 353 351 348 345 344 346 345 343 341 339 339 339 338 337 336 334 333 330
349 351 346 344 349 349 347 348 348 348 350 349 349 346 348 352 349 346 351 349 348 347 347 351 347 348 348 348 348 346 345 344 342 340 339 339 338 336 335 332 328 324 318
343 345 350 350 349 349 346 349 349 346 349 347 345 349 348 349 350 350 348 345 344 341 342 343 346 345 349 347 349 349 342 343 344 341 338 337 336 332 331 324 320 315 311
345 344 344 347 348 347 349 347 346 343 345 349 350 349 347 347 348 346 347 349 352 352 350 349 349 345 347 348 347 346 346 344 344 342 338 338 335 324 319 318 318 315 309
349 346 345 350 346 346 348 349 349 348 346 346 346 348 348 348 346 350 348 346 345 345 345 349 348 345 349 348 344 347 344 346 344 342 339 338 335 327 317 317 318 313 308
350 348 347 348 349 347 346 347 348 347 349 346 348 348 348 347 347 348 350 350 346 343 344 345 345 343 344 349 348 347 345 345 344 342 340 338 333 331 329 311 314 311 306
348 350 351 351 350 346 350 349 351 350 347 346 346 345 345 346 350 349 347 347 346 345 345 343 342 345 344 344 346 345 341 345 342 341 338 337 333 332 328 324 312 309 305
346 345 345 344 346 348 348 351 350 350 348 346 346 347 344 345 345 346 345 345 343 344 344 343 343 345 348 344 343 341 340 341 344 342 339 334 331 328 328 326 320 307 304
347 346 345 346 346 347 347 345 346 348 346 341 339 345 349 348 347 348 347 346 343 344 345 344 343 344 343 342 342 340 340 342 340 335 330 322 327 327 324 326 322 317 306
348 347 346 346 345 346 346 347 346 347 344 341 342 344 344 345 344 344 344 347 346 345 343 342 343 344 342 342 341 341 339 336 335 335 330 316 322 319 317 322 325 322 312
346 348 348 349 348 345 345 346 345 341 340 344 348 345 345 346 344 344 344 344 345 344 342 340 341 342 341 338 338 338 338 334 325 330 323 313 317 315 316 320 322 317 315

GFSMA_850_thetae_141.txt.gz
Theta_e
345 346 341 344 344 344 345 346 346 343 344 342 341 340 340 338 336 338 339 340 342 344 344 343 343 344 345 346 347 345 339 337 342 343 343 341 342 343 344 344 345 345 345
344 343 342 343 346 345 345 345 346 345 343 340 341 338 340 341 341 337 338 339 341 345 347 347 347 345 344 346 347 338 337 342 344 345 343 343 343 344 344 344 344 345 345
339 343 342 346 347 346 343 345 346 344 342 341 341 340 339 343 343 343 345 344 344 347 347 350 351 351 349 346 337 336 343 346 344 343 342 342 342 342 342 343 345 346 345
345 345 342 344 342 339 341 344 345 345 340 340 341 341 340 340 342 343 343 343 345 347 348 351 352 350 347 346 336 342 346 345 343 344 343 343 344 345 344 343 347 347 344
343 344 345 345 341 345 348 348 346 345 340 342 342 342 343 340 343 344 344 342 347 347 348 350 352 351 347 344 339 342 342 344 344 342 343 343 344 345 341 343 345 346 344
343 345 346 346 344 344 345 345 348 345 340 342 343 342 343 343 344 345 345 345 347 348 349 349 351 345 345 341 345 346 344 343 344 345 346 345 345 341 339 340 344 346 344
343 342 341 342 344 344 344 346 345 345 344 345 344 342 343 345 344 344 345 345 346 348 350 350 350 344 344 346 346 350 350 342 344 345 345 345 343 339 343 342 347 347 345
342 347 347 338 339 342 345 344 344 345 347 344 346 348 344 343 343 343 343 344 347 347 348 351 349 348 349 349 343 342 336 339 344 344 344 340 338 343 342 348 345 347 346
342 350 346 344 335 340 345 347 346 346 348 346 345 347 349 345 342 344 343 340 343 346 349 348 351 349 351 349 344 340 338 342 345 344 339 339 344 344 348 346 346 346 347
339 344 347 343 340 341 346 346 347 346 344 347 348 345 345 344 341 333 335 335 338 342 347 347 349 349 350 349 344 337 343 345 344 339 340 346 346 348 347 347 347 347 347
340 345 346 341 340 337 344 343 346 346 341 347 350 351 347 347 343 342 336 343 339 337 340 345 348 350 351 349 345 342 342 338 340 338 342 346 347 346 347 347 347 347 347
342 346 349 344 338 336 335 340 343 347 342 335 346 344 349 349 348 347 346 345 345 345 343 338 341 345 350 348 346 342 340 339 338 338 341 345 346 347 347 347 346 345 346
345 344 346 344 338 338 338 340 341 344 346 342 343 344 349 346 350 349 347 349 346 345 343 342 339 343 348 347 348 342 342 341 339 340 342 345 346 346 346 344 343 342 342
348 346 345 343 342 336 339 340 338 338 341 343 339 338 349 351 351 349 348 349 347 348 346 345 348 347 348 350 344 342 340 341 339 340 341 342 342 341 340 339 337 336 335
347 347 349 346 347 344 344 348 341 338 346 349 351 350 342 340 346 351 351 348 348 347 346 343 346 348 348 348 345 345 342 341 342 339 339 338 338 337 336 334 332 330 325
347 347 347 347 347 346 348 347 347 344 347 349 348 348 347 346 348 347 351 350 349 348 345 348 348 350 349 346 346 345 344 343 341 339 339 338 336 335 333 329 324 319 316
348 350 349 349 347 346 347 346 346 347 348 349 347 345 347 348 349 347 342 346 345 345 344 348 349 347 349 348 347 347 346 341 342 341 338 336 333 331 329 321 316 312 310
349 347 347 346 347 343 345 347 347 347 347 346 349 346 346 346 349 348 347 349 348 345 347 346 345 345 347 346 348 347 346 344 343 343 340 338 333 318 315 315 316 314 309
342 345 343 341 342 344 345 346 346 347 345 344 346 347 351 347 346 347 346 343 347 348 350 350 348 346 347 345 346 346 341 345 343 343 341 339 336 328 318 313 315 312 308
346 347 344 343 344 347 347 346 348 347 346 346 345 345 346 347 347 348 345 347 347 344 343 344 345 346 346 343 346 346 346 343 344 342 341 339 337 332 330 319 311 310 306
347 347 349 346 345 346 345 344 346 346 346 346 349 346 347 347 346 345 347 347 347 347 346 344 344 344 344 342 343 346 344 345 345 344 342 339 338 333 329 328 323 309 306
348 348 349 348 345 348 349 347 347 349 352 350 345 344 345 345 344 347 348 348 348 347 348 343 342 342 341 343 344 345 345 345 344 343 341 339 337 332 328 327 325 313 305
349 350 347 346 346 344 344 345 350 351 349 350 348 345 344 345 345 345 345 345 345 345 344 342 343 344 343 343 344 343 344 342 342 343 340 337 335 331 327 325 323 319 313
347 346 345 344 344 344 344 345 346 345 349 350 348 345 341 340 344 346 346 346 345 345 344 343 344 344 344 343 343 342 342 341 341 342 334 332 330 327 323 325 321 323 319
346 346 345 346 345 346 345 346 346 346 345 343 345 345 342 340 342 345 346 342 342 343 342 344 343 342 343 343 343 342 342 341 339 332 327 325 324 322 320 322 323 322 317
346 346 347 347 347 347 347 346 345 345 346 344 340 340 340 343 344 344 344 343 344 343 343 343 342 341 342 343 341 340 340 337 335 331 329 321 317 316 316 320 319 316 313

GFSMA_850_thetae_144.txt.gz
Theta_e
343 344 343 343 343 344 345 346 343 343 342 341 340 339 339 337 332 338 339 341 343 344 346 346 345 344 344 345 345 339 339 342 344 344 343 343 343 343 343 344 344 345 345
344 342 342 344 343 344 345 344 344 344 344 341 339 338 339 338 339 338 339 341 344 345 347 350 351 350 346 346 337 339 343 345 344 343 342 342 342 342 342 343 346 346 344
344 343 344 344 346 344 347 345 346 345 338 341 341 339 339 341 342 343 344 344 344 346 348 348 352 350 345 339 338 344 346 344 342 344 342 343 344 344 343 342 346 346 344
340 343 343 345 344 343 343 343 345 344 341 339 338 339 339 338 341 342 342 344 344 346 346 349 351 348 345 338 339 343 344 345 343 342 343 343 344 344 341 344 346 344 344
343 343 342 344 340 342 344 345 346 343 341 341 341 342 341 337 339 343 344 344 345 346 347 347 347 347 338 341 344 343 343 344 343 344 345 345 344 340 339 342 346 345 344
342 342 343 340 341 344 345 345 345 342 340 341 342 342 342 343 342 344 345 345 345 346 347 347 348 347 341 343 344 347 348 344 343 344 343 344 342 340 343 344 345 346 345
341 344 341 341 340 342 343 344 346 345 347 345 343 344 342 342 343 344 344 344 346 346 346 348 346 342 344 345 346 343 342 342 344 343 343 337 339 343 343 346 346 346 346
338 341 339 339 341 341 342 345 345 344 347 345 346 347 344 345 344 343 342 342 342 344 346 342 348 348 346 346 342 343 343 345 344 343 338 343 343 344 347 345 346 346 347
341 344 345 342 336 341 344 344 343 344 347 344 344 345 346 345 343 342 343 343 336 344 344 346 349 339 345 345 341 343 343 343 342 337 340 346 345 347 346 346 347 347 346
343 344 346 343 339 340 342 342 345 346 345 345 349 343 346 343 342 334 339 337 334 336 340 343 346 347 348 345 342 341 341 338 338 337 343 347 346 346 347 347 347 346 346
342 342 343 340 339 339 341 345 346 344 343 347 349 347 346 345 346 345 337 339 342 338 337 339 346 345 348 346 344 343 341 339 336 337 342 345 346 346 346 346 345 345 345
342 341 346 340 337 336 343 340 343 343 342 345 348 346 347 347 347 346 345 344 344 344 344 341 342 345 344 345 343 344 343 340 338 338 341 344 345 346 345 344 343 342 341
343 344 342 345 338 336 338 339 344 342 341 340 341 344 349 351 348 347 347 347 346 344 344 344 341 340 345 345 346 343 344 339 339 339 340 342 343 342 340 338 335 334 333
343 344 343 345 344 338 336 336 335 336 343 342 339 338 342 346 349 350 349 349 348 347 346 345 346 345 345 346 345 345 344 342 340 338 338 338 338 337 335 332 330 326 323
343 345 346 345 344 345 341 341 338 336 338 340 339 344 341 340 342 348 349 349 347 344 346 345 345 346 347 347 346 346 345 343 340 338 338 338 336 334 332 326 321 317 316
345 347 346 347 346 345 343 346 348 345 340 339 345 344 344 344 343 347 346 347 347 347 347 346 346 348 347 347 346 346 346 342 342 339 338 335 330 332 325 317 314 310 310
345 347 346 347 347 346 346 349 348 349 347 342 346 344 342 345 344 348 348 345 346 346 344 346 347 348 346 346 347 347 347 341 341 341 337 336 322 316 315 315 315 312 308
344 347 345 347 347 348 345 345 346 344 345 346 346 349 349 345 344 346 347 347 345 346 345 345 347 344 343 345 346 346 345 343 343 343 340 338 328 325 314 311 312 311 308
346 347 348 346 347 346 347 344 345 344 345 347 346 344 345 344 346 344 346 346 345 343 345 346 347 347 345 346 345 345 345 344 343 343 341 339 336 332 327 321 312 309 307
346 343 343 345 343 341 343 345 345 345 345 345 345 343 344 346 347 347 346 346 345 347 347 345 343 345 345 345 346 345 344 344 342 342 342 340 336 333 330 327 324 311 306
343 344 344 346 344 343 342 345 345 345 347 346 346 348 346 345 345 345 344 345 347 347 346 346 344 342 343 344 344 343 344 345 342 342 343 341 337 333 330 328 324 312 305
349 347 347 347 347 345 345 346 347 345 345 346 348 346 347 346 346 346 346 347 347 347 346 345 345 344 342 342 342 344 344 344 342 343 344 339 337 334 328 326 323 318 312
347 348 348 348 348 348 346 347 348 346 348 348 349 349 347 344 346 346 345 345 345 345 345 345 344 345 343 343 342 344 344 343 343 344 343 339 338 332 328 325 322 320 318
346 347 345 347 347 347 345 344 343 344 346 347 348 349 348 346 343 340 340 342 343 343 343 344 344 343 343 343 344 343 343 343 343 342 342 340 337 331 326 324 322 320 317
347 344 346 348 346 345 345 345 345 346 346 346 345 345 344 345 344 341 339 341 343 343 341 342 342 342 342 342 342 342 343 342 342 341 339 336 334 330 323 323 321 319 315
344 346 345 345 345 345 345 345 345 345 346 345 345 345 343 340 340 340 342 340 342 344 342 343 342 342 341 341 341 342 342 342 341 337 328 326 327 325 321 321 318 314 312

GFSMA_850_thetae_147.txt.gz
Theta_e
338 341 342 343 344 344 344 344 343 344 341 340 339 338 338 334 337 338 340 342 343 344 345 346 347 348 345 343 337 338 342 344 344 342 342 342 342 342 342 343 343 345 342
344 343 343 344 344 344 343 343 343 343 341 339 338 337 338 339 337 339 340 341 342 342 343 343 346 350 345 335 340 344 344 344 343 342 341 342 343 343 342 342 343 346 344
341 342 343 343 343 343 344 343 344 343 342 341 339 339 337 339 340 342 343 343 344 344 346 348 347 349 345 336 342 344 344 343 341 342 342 343 343 344 342 343 345 345 343
343 342 343 344 345 344 344 344 345 342 340 340 339 338 339 340 341 342 343 344 343 344 344 345 345 344 340 338 341 342 342 343 343 343 345 345 344 342 339 342 345 345 344
341 342 343 343 344 341 341 344 344 341 338 338 340 340 340 337 338 341 343 344 344 345 346 345 345 347 341 342 342 346 347 344 342 343 343 343 342 339 342 342 345 345 345
342 342 341 344 343 342 345 345 343 341 341 341 341 341 341 342 341 342 343 345 344 345 345 346 345 343 344 344 343 346 343 340 342 343 342 340 338 343 342 346 346 346 346
341 341 342 342 339 342 343 345 345 343 340 342 342 342 342 342 342 343 343 342 343 344 344 345 341 346 345 345 341 341 341 343 343 342 338 341 342 343 347 344 346 346 346
339 339 342 341 340 342 343 344 346 344 346 345 346 343 344 343 343 344 343 342 342 341 345 344 346 344 344 346 339 341 344 342 340 337 341 344 343 347 344 345 346 346 346
341 339 340 339 340 338 341 343 344 344 346 344 345 345 343 344 344 343 342 341 339 336 337 344 345 345 344 343 341 341 341 339 339 338 342 345 346 345 346 346 346 344 345
341 340 343 343 336 340 341 344 344 343 346 346 344 345 345 342 344 341 337 339 340 340 336 342 343 345 346 345 343 342 341 340 339 342 344 345 345 346 346 345 344 343 343
343 343 343 342 340 339 342 344 343 341 345 346 346 343 345 343 345 345 337 342 343 343 337 337 341 344 345 346 344 342 341 341 339 341 343 343 344 344 345 343 341 339 339
342 342 343 341 339 338 343 345 345 343 343 346 347 347 346 346 346 346 346 345 345 343 343 342 341 341 342 345 345 345 343 341 339 340 342 342 342 342 340 338 334 333 332
344 341 341 343 341 338 341 341 340 342 341 342 341 345 349 349 347 346 344 344 347 345 344 344 344 341 342 343 344 344 344 342 340 338 339 339 338 337 335 331 329 325 322
342 341 343 342 345 339 338 338 338 338 340 341 341 340 343 347 347 347 348 348 347 347 346 345 344 344 345 345 345 345 344 343 340 338 338 338 336 334 332 326 321 316 315
343 344 345 342 343 341 338 335 334 334 335 338 340 340 340 341 344 346 349 348 348 346 344 344 344 343 345 346 346 346 345 344 340 338 337 335 332 332 326 317 313 311 310
340 342 345 345 345 344 345 342 341 343 341 338 340 343 346 347 346 345 347 346 344 347 346 347 344 344 347 346 346 345 345 345 341 340 337 334 324 320 315 314 313 311 308
342 343 344 346 346 346 346 343 343 345 345 347 342 343 345 342 342 344 347 347 346 345 346 345 344 343 346 345 345 344 345 345 340 341 338 337 325 318 313 312 311 309 308
343 342 344 345 345 348 345 345 344 345 344 346 346 345 345 346 347 344 344 348 347 345 345 345 346 345 344 343 343 344 343 344 341 341 340 338 333 330 322 317 311 308 307
347 345 343 344 344 345 346 345 344 345 347 346 345 346 344 346 347 345 345 344 345 347 345 344 344 346 347 346 344 345 344 344 343 341 341 339 339 333 330 327 324 311 306
343 344 345 345 346 344 346 343 346 346 346 344 344 345 345 343 343 346 348 346 345 346 346 348 346 345 344 346 345 345 345 345 344 342 340 341 338 335 333 329 326 315 306
342 342 344 346 343 342 343 342 342 345 344 344 346 347 347 347 345 345 345 345 345 345 346 348 347 346 345 343 343 343 345 345 343 342 340 340 339 338 334 329 324 314 308
342 342 343 344 342 344 345 343 342 345 344 344 345 344 346 346 347 346 345 346 346 345 346 345 345 345 345 345 344 343 342 344 344 342 341 339 339 333 331 328 325 319 314
344 346 347 346 346 346 347 345 344 345 347 347 345 347 348 347 345 343 344 344 344 343 343 344 344 344 344 344 344 343 342 342 344 344 343 341 340 333 328 325 322 318 316
344 345 345 347 346 345 347 346 347 346 345 344 346 348 348 347 347 345 343 341 339 339 340 341 342 342 344 343 343 344 344 344 343 344 343 342 340 333 323 322 321 317 315
343 346 346 344 345 344 345 344 345 344 342 343 345 346 345 345 346 344 345 344 341 339 340 341 341 341 342 342 342 342 342 343 344 344 342 340 335 328 319 315 314 318 314
345 346 344 343 344 342 343 343 344 344 345 345 345 346 345 345 344 343 342 341 340 341 342 343 343 342 342 341 340 339 339 341 341 340 337 330 328 322 313 313 311 317 311